Sigfox identifier Datetime Temperature Humidity SNR
002F05FA 2019-04-23 14:43:22 16.5 30 23
002F05FA 2019-04-23 14:09:45 16.4 30 23
002F05FA 2019-04-23 13:36:07 16.3 30 23.1
002F05FA 2019-04-23 13:02:31 16.3 30 23.1
002F05FA 2019-04-23 12:28:56 16 30 23
002F05FA 2019-04-23 11:55:18 16 30 23
002F05FA 2019-04-23 11:21:41 15.9 30 22.8
002F05FA 2019-04-23 10:48:02 15.8 30 22.6
002F05FA 2019-04-23 10:14:25 15.8 30 22.5
002F05FA 2019-04-23 09:40:48 15.8 30 22.3
002F05FA 2019-04-23 09:07:10 15.8 30 22.3
002F05FA 2019-04-23 08:33:33 15.8 30 22.4
002F05FA 2019-04-23 07:59:55 15.8 30 22.5
002F05FA 2019-04-23 07:26:17 15.8 30 22.6
002F05FA 2019-04-23 06:52:40 15.8 30 22.7
002F05FA 2019-04-23 06:19:04 15.8 30 22.9
002F05FA 2019-04-23 05:45:23 15.7 30 22.9
002F05FA 2019-04-23 05:11:45 15.6 30 22.8
002F05FA 2019-04-23 04:38:07 15.7 30 22.7
002F05FA 2019-04-23 04:04:28 15.8 30 22.5
002F05FA 2019-04-23 03:30:50 15.6 30 22.5
002F05FA 2019-04-23 02:57:11 15.6 30 22.6
002F05FA 2019-04-23 02:23:32 15.8 30 22.6
002F05FA 2019-04-23 01:49:53 15.8 30 22.6
002F05FA 2019-04-23 01:16:12 15.8 30 22.5
002F05FA 2019-04-23 00:42:33 15.8 30 22.3
002F05FA 2019-04-23 00:08:54 15.8 30 22.3
002F05FA 2019-04-22 23:35:15 15.8 30 22.3
002F05FA 2019-04-22 23:01:36 15.8 30 22.4
002F05FA 2019-04-22 22:27:55 15.9 30 22.7
002F05FA 2019-04-22 21:54:14 15.9 29 22.7
002F05FA 2019-04-22 21:20:34 16 29 22.8
002F05FA 2019-04-22 20:46:53 16 29 22.9
002F05FA 2019-04-22 20:13:13 16 29 23
002F05FA 2019-04-22 19:39:34 16 29 23
002F05FA 2019-04-22 19:05:54 16 29 23
002F05FA 2019-04-22 18:32:15 16.2 29 23
002F05FA 2019-04-22 17:58:37 16.2 29 22.9
002F05FA 2019-04-22 17:24:58 16.3 29 23
002F05FA 2019-04-22 16:51:19 16.1 29 22.9
002F05FA 2019-04-22 16:17:41 16 29 22.9
002F05FA 2019-04-22 15:44:03 16 29 22.8
002F05FA 2019-04-22 15:10:25 16 29 22.9
002F05FA 2019-04-22 14:36:48 16 29 23
002F05FA 2019-04-22 14:03:11 16 29 23
002F05FA 2019-04-22 13:29:33 16 29 23
002F05FA 2019-04-22 12:55:54 15.9 29 22.9
002F05FA 2019-04-22 12:22:14 15.8 29 23
002F05FA 2019-04-22 11:48:35 15.9 29 23.1
002F05FA 2019-04-22 11:14:55 15.9 29 23.2
002F05FA 2019-04-22 10:41:17 15.8 29 23.2
002F05FA 2019-04-22 10:07:38 15.8 29 23.2
002F05FA 2019-04-22 09:33:58 15.8 29 23.8
002F05FA 2019-04-22 09:00:19 15.8 29 23.8
002F05FA 2019-04-22 08:26:41 15.8 29 23.8
002F05FA 2019-04-22 07:53:02 15.8 29 23.8
002F05FA 2019-04-22 07:19:24 15.8 29 23.7
002F05FA 2019-04-22 06:45:46 15.8 29 23.5
002F05FA 2019-04-22 06:12:06 15.8 29 23.4
002F05FA 2019-04-22 05:38:27 15.8 29 23.4
002F05FA 2019-04-22 05:04:48 15.8 29 23.4
002F05FA 2019-04-22 04:31:08 15.8 29 23.4
002F05FA 2019-04-22 03:57:29 15.8 29 23.4
002F05FA 2019-04-22 03:23:50 15.7 29 23.5
002F05FA 2019-04-22 02:50:11 15.8 29 23.6
002F05FA 2019-04-22 02:16:31 15.6 29 23.5
002F05FA 2019-04-22 01:42:52 15.6 29 23.6
002F05FA 2019-04-22 01:09:13 15.6 29 23.5
002F05FA 2019-04-22 00:35:34 15.6 29 23.5
002F05FA 2019-04-22 00:01:55 15.6 29 23.5
002F05FA 2019-04-21 23:28:16 15.6 29 23.4
002F05FA 2019-04-21 22:54:37 15.6 29 23.4
002F05FA 2019-04-21 22:20:58 15.6 29 23.4
002F05FA 2019-04-21 21:47:19 15.6 29 23.3
002F05FA 2019-04-21 21:13:40 15.6 29 23.3
002F05FA 2019-04-21 20:40:00 15.6 28 23.3
002F05FA 2019-04-21 20:06:21 15.6 28 23.3
002F05FA 2019-04-21 19:32:42 15.6 28 22.6
002F05FA 2019-04-21 18:59:04 15.6 28 22.6
002F05FA 2019-04-21 18:25:25 15.6 28 22.6
002F05FA 2019-04-21 17:51:47 15.6 28 22.7
002F05FA 2019-04-21 17:18:09 15.6 28 22.8
002F05FA 2019-04-21 16:44:29 15.6 28 23
002F05FA 2019-04-21 16:10:51 15.6 28 23.1
002F05FA 2019-04-21 15:37:14 15.6 28 23
002F05FA 2019-04-21 15:03:37 15.6 28 22.9
002F05FA 2019-04-21 14:29:58 15.6 28 22.9
002F05FA 2019-04-21 13:56:22 15.6 28 22.9
002F05FA 2019-04-21 13:22:45 15.6 28 22.8
002F05FA 2019-04-21 12:49:07 15.6 28 22.7
002F05FA 2019-04-21 12:15:28 15.6 28 22.8
002F05FA 2019-04-21 11:41:50 15.6 28 22.9
002F05FA 2019-04-21 11:08:12 15.6 28 23
002F05FA 2019-04-21 10:34:34 15.6 28 23
002F05FA 2019-04-21 10:00:56 15.6 28 23.2
002F05FA 2019-04-21 09:27:19 15.6 28 23.3
002F05FA 2019-04-21 08:53:42 15.8 28 23.3
002F05FA 2019-04-21 08:20:06 15.8 28 23.3
002F05FA 2019-04-21 07:46:30 15.8 28 23.3
002F05FA 2019-04-21 07:12:54 15.8 28 23.3
002F05FA 2019-04-21 06:39:15 15.8 28 23.3
002F05FA 2019-04-21 06:05:38 15.8 28 23.4
002F05FA 2019-04-21 05:32:00 15.8 28 23.4
002F05FA 2019-04-21 04:58:23 15.8 28 23.3
002F05FA 2019-04-21 04:24:46 15.8 28 23.2
002F05FA 2019-04-21 03:51:10 15.8 28 23.1
002F05FA 2019-04-21 03:17:32 15.7 28 23.1
002F05FA 2019-04-21 02:43:56 15.7 28 23
002F05FA 2019-04-21 02:10:19 15.7 28 23
002F05FA 2019-04-21 01:36:41 15.7 28 23.1
002F05FA 2019-04-21 01:03:03 15.6 28 23.1
002F05FA 2019-04-21 00:29:25 15.6 28 23
002F05FA 2019-04-20 23:55:48 15.7 28 23
002F05FA 2019-04-20 23:22:09 15.6 27 23
002F05FA 2019-04-20 22:48:30 15.6 27 23
002F05FA 2019-04-20 22:14:51 15.6 27 22.9
002F05FA 2019-04-20 21:41:14 15.6 27 22.8
002F05FA 2019-04-20 21:07:34 15.6 27 22.9
002F05FA 2019-04-20 20:33:58 15.6 27 22.8
002F05FA 2019-04-20 20:00:20 15.6 27 22.9
002F05FA 2019-04-20 19:26:43 15.6 27 22.8
002F05FA 2019-04-20 18:53:04 15.7 27 22.8
002F05FA 2019-04-20 18:19:27 15.7 27 22.9
002F05FA 2019-04-20 17:45:49 15.6 27 22.8
002F05FA 2019-04-20 17:12:12 15.6 27 22.8
002F05FA 2019-04-20 16:38:36 15.6 27 22.7
002F05FA 2019-04-20 16:04:59 15.6 27 22.6
002F05FA 2019-04-20 15:31:21 15.6 27 22.6
002F05FA 2019-04-20 14:57:43 15.6 27 22.6
002F05FA 2019-04-20 14:24:06 15.6 27 22.6
002F05FA 2019-04-20 13:50:30 15.6 27 22.6
002F05FA 2019-04-20 13:16:52 15.6 27 22.6
002F05FA 2019-04-20 12:43:15 15.6 27 22.7
002F05FA 2019-04-20 12:09:36 15.6 27 22.8
002F05FA 2019-04-20 11:35:56 15.7 27 22.6
002F05FA 2019-04-20 11:02:18 15.6 27 22.5
002F05FA 2019-04-20 10:28:39 15.6 27 22.5
002F05FA 2019-04-20 09:55:00 15.6 27 22.5
002F05FA 2019-04-20 09:21:21 15.8 27 22.5
002F05FA 2019-04-20 08:47:42 15.8 27 23.2
002F05FA 2019-04-20 08:14:03 15.8 27 23.2
002F05FA 2019-04-20 07:40:23 15.8 27 23.2
002F05FA 2019-04-20 07:06:44 15.9 27 23.2
002F05FA 2019-04-20 06:33:06 15.8 27 23.2
002F05FA 2019-04-20 05:59:27 15.8 27 23.1
002F05FA 2019-04-20 05:25:48 15.8 27 23.2
002F05FA 2019-04-20 04:52:09 15.8 27 23.1
002F05FA 2019-04-20 04:18:30 15.8 26 23.1
002F05FA 2019-04-20 03:44:51 15.8 26 23.1
002F05FA 2019-04-20 03:11:13 15.9 26 23.1
002F05FA 2019-04-20 02:37:35 16 26 23.7
002F05FA 2019-04-20 02:03:56 16 26 23.7
002F05FA 2019-04-20 01:30:16 16 26 23.7
002F05FA 2019-04-20 00:56:36 16 26 23.7
002F05FA 2019-04-20 00:22:55 16 26 23.7
002F05FA 2019-04-19 23:49:14 16.1 26 23.8
002F05FA 2019-04-19 23:15:35 16.2 26 23.8
002F05FA 2019-04-19 22:41:56 16.3 26 23.8
002F05FA 2019-04-19 22:08:17 16.2 26 23.9
002F05FA 2019-04-19 21:34:38 16.3 26 23.9
002F05FA 2019-04-19 21:01:00 16.3 26 24
002F05FA 2019-04-19 20:27:21 16.3 26 23.9
002F05FA 2019-04-19 19:53:44 16.3 26 23.3
002F05FA 2019-04-19 19:20:06 16.3 26 23.4
002F05FA 2019-04-19 18:46:28 16.3 26 23.4
002F05FA 2019-04-19 18:12:50 16.4 26 23.5
002F05FA 2019-04-19 17:39:13 16.4 26 23.5
002F05FA 2019-04-19 17:05:35 16.3 26 23.6
002F05FA 2019-04-19 16:31:56 16.3 26 23.6
002F05FA 2019-04-19 15:58:19 16.3 26 23.5
002F05FA 2019-04-19 15:24:39 16.3 26 23.5
002F05FA 2019-04-19 14:51:00 16.3 26 23.5
002F05FA 2019-04-19 14:17:21 16.2 26 23.6
002F05FA 2019-04-19 13:43:41 16.1 26 23
002F05FA 2019-04-19 13:10:01 16.1 26 23
002F05FA 2019-04-19 12:36:21 16 26 23
002F05FA 2019-04-19 12:02:42 16 26 23.1
002F05FA 2019-04-19 11:29:02 16 26 23
002F05FA 2019-04-19 10:55:23 16 26 23
002F05FA 2019-04-19 10:21:43 16 26 23
002F05FA 2019-04-19 09:48:04 16 25 23
002F05FA 2019-04-19 09:14:24 16 25 23.1
002F05FA 2019-04-19 08:40:44 16 25 23.1
002F05FA 2019-04-19 08:07:04 16 25 22.9
002F05FA 2019-04-19 07:33:24 16 25 22.9
002F05FA 2019-04-19 06:59:44 16 25 22.8
002F05FA 2019-04-19 06:26:04 16 25 22.7
002F05FA 2019-04-19 05:52:24 16.1 25 22.7
002F05FA 2019-04-19 05:18:45 16.1 25 22.6
002F05FA 2019-04-19 04:45:06 16 25 22.5
002F05FA 2019-04-19 04:11:25 16 25 22.6
002F05FA 2019-04-19 03:37:46 16.2 25 22.5
002F05FA 2019-04-19 03:04:07 16.3 25 22.5
002F05FA 2019-04-19 02:30:28 16.1 25 22.4
002F05FA 2019-04-19 01:56:49 16.3 25 22.5
002F05FA 2019-04-19 01:23:10 16.3 25 22.6
002F05FA 2019-04-19 00:49:30 16.4 25 22.6
002F05FA 2019-04-19 00:15:52 16.4 25 22.7
002F05FA 2019-04-18 23:42:13 16.5 25 22.7
002F05FA 2019-04-18 23:08:34 16.5 25 22.7
002F05FA 2019-04-18 22:34:56 16.7 25 22.7
002F05FA 2019-04-18 22:01:16 16.7 25 22.6
002F05FA 2019-04-18 21:27:39 16.7 25 22.4
002F05FA 2019-04-18 20:54:00 16.7 25 22.4
002F05FA 2019-04-18 20:20:21 16.7 25 22.4
002F05FA 2019-04-18 19:46:43 16.8 25 22.5
002F05FA 2019-04-18 19:13:04 16.9 25 22.5
002F05FA 2019-04-18 18:39:26 16.8 25 22.6
002F05FA 2019-04-18 18:05:47 16.8 25 22.6
002F05FA 2019-04-18 17:32:08 16.7 25 22.7
002F05FA 2019-04-18 16:58:31 16.7 25 22.7
002F05FA 2019-04-18 16:24:53 16.7 25 22.8
002F05FA 2019-04-18 15:51:15 16.7 25 22.8
002F05FA 2019-04-18 15:17:37 16.5 25 23
002F05FA 2019-04-18 14:43:59 16.5 25 23.1
002F05FA 2019-04-18 14:10:21 16.5 24 22.9
002F05FA 2019-04-18 13:36:43 16.4 24 22.9
002F05FA 2019-04-18 13:03:07 16.3 24 23
002F05FA 2019-04-18 12:29:31 16.4 24 23.1
002F05FA 2019-04-18 11:55:55 16.3 24 23
002F05FA 2019-04-18 11:22:18 16.3 24 22.9
002F05FA 2019-04-18 10:48:40 16.5 24 22.9
002F05FA 2019-04-18 10:15:03 16.3 24 22.7
002F05FA 2019-04-18 09:41:27 16.3 24 22.5
002F05FA 2019-04-18 09:07:51 16.3 24 22.5
002F05FA 2019-04-18 08:34:15 16.4 24 22.5
002F05FA 2019-04-18 08:00:42 16.5 24 22.8
002F05FA 2019-04-18 07:27:01 16.5 24 22.7
002F05FA 2019-04-18 06:53:25 16.5 24 22.5
002F05FA 2019-04-18 06:19:49 16.4 24 22.5
002F05FA 2019-04-18 05:46:13 16.3 24 22.3
002F05FA 2019-04-18 05:12:39 16.3 24 22.6
002F05FA 2019-04-18 04:39:00 16.3 24 22.5
002F05FA 2019-04-18 04:05:23 16.3 24 22.4
002F05FA 2019-04-18 03:31:45 16.3 24 22.2
002F05FA 2019-04-18 02:58:09 16.3 24 22.2
002F05FA 2019-04-18 02:24:30 16.5 24 22
002F05FA 2019-04-18 01:50:53 16.5 24 21.9
002F05FA 2019-04-18 01:17:16 16.5 23 21.8
002F05FA 2019-04-18 00:43:38 16.7 23 21.9
002F05FA 2019-04-18 00:10:02 16.8 23 21.7
002F05FA 2019-04-17 23:36:24 16.9 23 21.5
002F05FA 2019-04-17 23:02:48 16.9 23 21.5
002F05FA 2019-04-17 22:29:09 16.9 23 21.4
002F05FA 2019-04-17 21:55:30 16.9 23 21.3
002F05FA 2019-04-17 21:21:52 16.9 23 21.3
002F05FA 2019-04-17 20:48:14 16.9 23 21.4
002F05FA 2019-04-17 20:14:34 16.9 23 21.4
002F05FA 2019-04-17 19:40:55 16.9 23 21.3
002F05FA 2019-04-17 19:07:16 16.9 23 21.3
002F05FA 2019-04-17 18:33:37 16.9 23 21.3
002F05FA 2019-04-17 17:59:59 16.9 23 21.3
002F05FA 2019-04-17 17:26:21 16.9 23 21.3
002F05FA 2019-04-17 16:52:43 16.9 23 22.3
002F05FA 2019-04-17 16:19:05 16.8 23 22.4
002F05FA 2019-04-17 15:45:25 16.7 23 22.2
002F05FA 2019-04-17 15:11:47 16.8 23 22.1
002F05FA 2019-04-17 14:38:08 16.9 23 22.2
002F05FA 2019-04-17 14:04:29 16.9 23 22.3
002F05FA 2019-04-17 13:30:54 17.1 23 22.5
002F05FA 2019-04-17 12:57:16 17.1 23 22.5
002F05FA 2019-04-17 12:23:40 17.1 23 22.3
002F05FA 2019-04-17 11:50:03 17.1 23 22.3
002F05FA 2019-04-17 11:16:26 17.1 22 22.2
002F05FA 2019-04-17 10:42:48 17.1 22 22
002F05FA 2019-04-17 10:09:10 17.1 22 21.9
002F05FA 2019-04-17 09:35:33 17.1 22 21.9
002F05FA 2019-04-17 09:01:56 17.1 22 21.9
002F05FA 2019-04-17 08:28:19 17.3 22 21.8
002F05FA 2019-04-17 07:54:40 17.5 22 21.8
002F05FA 2019-04-17 07:21:02 17.5 22 21.7
002F05FA 2019-04-17 06:47:25 17.7 22 21.7
002F05FA 2019-04-17 06:13:46 17.8 22 21.7
002F05FA 2019-04-17 05:40:09 17.8 22 21.7
002F05FA 2019-04-17 05:06:31 17.8 22 21.6
002F05FA 2019-04-17 04:32:53 17.9 22 21.4
002F05FA 2019-04-17 03:59:16 18 22 21.3
002F05FA 2019-04-17 03:25:39 18 22 21.1
002F05FA 2019-04-17 02:52:03 18.2 22 19.5
002F05FA 2019-04-17 02:18:26 18.2 22 19.2
002F05FA 2019-04-17 01:44:50 18.2 22 18.8
002F05FA 2019-04-17 01:11:13 18.2 21 18.6
002F05FA 2019-04-17 00:37:37 18.3 21 18.5
002F05FA 2019-04-17 00:04:03 18.2 21 18.2
002F05FA 2019-04-16 23:30:26 18.2 21 17.8
002F05FA 2019-04-16 22:56:49 18.2 21 17.5
002F05FA 2019-04-16 22:23:14 18.6 21 17.5
002F05FA 2019-04-16 21:49:39 18.8 21 17.3
002F05FA 2019-04-16 21:16:05 19 21 17.6
002F05FA 2019-04-16 20:42:30 19.1 21 17.6
002F05FA 2019-04-16 20:08:56 19.2 21 17.6
002F05FA 2019-04-16 19:35:22 19.2 21 17.4
002F05FA 2019-04-16 19:01:46 19.2 21 17.3
002F05FA 2019-04-16 18:28:11 19.2 21 17.3
002F05FA 2019-04-16 17:54:37 19.2 21 17
002F05FA 2019-04-16 16:47:30 19.5 21 16.8
002F05FA 2019-04-16 16:13:54 19.7 21 16.5
002F05FA 2019-04-16 15:06:43 20.1 21 15.9
002F05FA 2019-04-16 14:33:08 20.5 21 15.6
002F05FA 2019-04-16 13:59:35 21.2 21 15.4
002F05FA 2019-04-16 13:25:59 21.2 21 15.4
002F05FA 2019-04-16 12:52:23 21.2 21 15.4
002F05FA 2019-04-16 12:18:49 21.2 21 16
002F05FA 2019-04-16 11:45:15 21.2 21 16.2
002F05FA 2019-04-16 11:11:41 21.1 21 16.2
002F05FA 2019-04-16 10:38:08 21.2 21 16.3
002F05FA 2019-04-16 10:04:34 21.2 21 15.7
002F05FA 2019-04-16 09:31:01 21.1 20 15.5
002F05FA 2019-04-16 08:57:27 21.1 20 15.4
002F05FA 2019-04-16 08:23:55 21 20 15.5
002F05FA 2019-04-16 07:50:24 21.1 20 15.4
002F05FA 2019-04-16 07:16:50 21.1 20 15.4
002F05FA 2019-04-16 06:43:17 21.1 20 14.5
002F05FA 2019-04-16 06:09:42 21.1 20 14.6
002F05FA 2019-04-16 05:36:09 21.2 20 14.5
002F05FA 2019-04-16 05:02:36 21.2 20 15.1
002F05FA 2019-04-16 04:29:02 21.2 20 15
002F05FA 2019-04-16 03:55:27 21.2 20 15.4
002F05FA 2019-04-16 03:21:53 21.2 20 15.4
002F05FA 2019-04-16 02:48:19 21.2 20 15.6
002F05FA 2019-04-16 02:14:45 21.2 20 16.7
002F05FA 2019-04-16 01:41:11 21.2 20 17.4
002F05FA 2019-04-16 01:07:37 21.2 20 18.2
002F05FA 2019-04-16 00:34:01 21.2 20 18.8
002F05FA 2019-04-16 00:00:27 21.2 20 19.1
002F05FA 2019-04-15 23:26:52 21.2 20 19.6
002F05FA 2019-04-15 22:53:18 21.3 19 20
002F05FA 2019-04-15 22:19:44 21.3 19 20.3
002F05FA 2019-04-15 21:46:10 21.3 19 20.6
002F05FA 2019-04-15 21:12:35 21.4 19 20.9
002F05FA 2019-04-15 20:39:00 21.4 19 21.2
002F05FA 2019-04-15 20:05:24 21.3 19 22.3
002F05FA 2019-04-15 19:31:51 21.4 19 22.6
002F05FA 2019-04-15 18:58:16 21.4 19 22.8
002F05FA 2019-04-15 18:24:43 21.4 19 23.6
002F05FA 2019-04-15 17:51:09 21.4 19 23.8
002F05FA 2019-04-15 17:17:36 21.6 19 24
002F05FA 2019-04-15 16:44:01 21.6 18 24.2
002F05FA 2019-04-15 16:10:28 21.6 18 24.4
002F05FA 2019-04-15 15:36:54 21.8 18 24.5
002F05FA 2019-04-15 15:03:21 21.8 18 24.6
002F05FA 2019-04-15 14:29:49 21.8 18 24.7
002F05FA 2019-04-15 13:56:13 22 18 24.8
002F05FA 2019-04-15 12:49:06 22.2 17 24.9
002F05FA 2019-04-15 12:15:32 22.5 16 25
002F05FA 2019-04-15 11:41:56 22.2 16 24.9
002F05FA 2019-04-15 11:08:21 22.2 16 24.9
002F05FA 2019-04-15 10:34:45 22.2 16 25.2
002F05FA 2019-04-15 10:01:09 22.2 17 25.3
002F05FA 2019-04-15 09:27:35 22.1 17 25.3
002F05FA 2019-04-15 08:54:00 22 17 25.3
002F05FA 2019-04-15 08:20:26 21.9 17 25.3
002F05FA 2019-04-15 07:46:51 21.8 17 25.4
002F05FA 2019-04-15 07:13:18 21.8 17 25.8
002F05FA 2019-04-15 06:39:44 21.8 17 25.8
002F05FA 2019-04-15 06:06:11 21.8 17 25.7
002F05FA 2019-04-15 05:32:36 21.8 17 25.3
002F05FA 2019-04-15 04:59:02 21.8 17 25.3
002F05FA 2019-04-15 04:25:29 21.8 17 25.3
002F05FA 2019-04-15 03:51:52 21.8 17 24.8
002F05FA 2019-04-15 03:18:17 21.8 17 24.8
002F05FA 2019-04-15 02:44:41 21.8 17 24.8
002F05FA 2019-04-15 02:11:06 21.8 17 24.7
002F05FA 2019-04-15 01:37:30 21.8 17 24.6
002F05FA 2019-04-15 01:03:54 21.8 18 25
002F05FA 2019-04-15 00:30:20 21.8 18 25
002F05FA 2019-04-14 23:56:43 21.8 18 25
002F05FA 2019-04-14 23:23:09 21.8 18 25.1
002F05FA 2019-04-14 22:49:32 21.8 18 25.2
002F05FA 2019-04-14 22:15:57 21.8 18 25.2
002F05FA 2019-04-14 21:42:20 21.9 18 25.3
002F05FA 2019-04-14 21:08:43 21.9 18 25.3
002F05FA 2019-04-14 20:35:07 22 18 25
002F05FA 2019-04-14 20:01:31 22 18 24.9
002F05FA 2019-04-14 19:27:54 22 18 24.9
002F05FA 2019-04-14 18:54:18 22 18 25
002F05FA 2019-04-14 18:20:43 21.9 18 24.9
002F05FA 2019-04-14 17:47:09 21.9 18 25
002F05FA 2019-04-14 17:13:35 21.8 18 24.5
002F05FA 2019-04-14 16:40:00 21.8 18 24.6
002F05FA 2019-04-14 16:06:25 21.8 18 24.6
002F05FA 2019-04-14 15:32:51 21.8 18 24.7
002F05FA 2019-04-14 14:59:20 21.8 18 24.8
002F05FA 2019-04-14 14:25:46 21.8 18 24.7
002F05FA 2019-04-14 13:52:11 21.9 18 24.8
002F05FA 2019-04-14 13:18:36 21.9 18 24.8
002F05FA 2019-04-14 12:45:02 22 18 24.9
002F05FA 2019-04-14 12:11:27 21.9 18 25
002F05FA 2019-04-14 11:37:53 21.9 18 25
002F05FA 2019-04-14 11:04:17 21.8 18 24.5
002F05FA 2019-04-14 10:30:43 21.8 18 24.5
002F05FA 2019-04-14 09:57:08 21.9 18 24.5
002F05FA 2019-04-14 09:23:31 21.8 18 24.4
002F05FA 2019-04-14 08:49:54 21.8 18 24.3
002F05FA 2019-04-14 08:16:16 21.8 18 24.4
002F05FA 2019-04-14 07:42:40 21.8 18 24.4
002F05FA 2019-04-14 07:09:06 21.8 18 24.3
002F05FA 2019-04-14 06:35:30 21.8 18 24.2
002F05FA 2019-04-14 06:01:55 21.8 18 24.3
002F05FA 2019-04-14 05:28:19 21.8 18 24.3
002F05FA 2019-04-14 04:54:43 21.8 18 24.7
002F05FA 2019-04-14 04:21:08 21.8 18 25.2
002F05FA 2019-04-14 03:47:34 21.9 18 25.1
002F05FA 2019-04-14 03:14:00 22 18 25.1
002F05FA 2019-04-14 02:40:23 21.9 18 25
002F05FA 2019-04-14 02:06:46 21.9 18 24.9
002F05FA 2019-04-14 01:33:10 22 18 24.9
002F05FA 2019-04-14 00:59:34 22 18 24.8
002F05FA 2019-04-14 00:25:58 22 18 24.8
002F05FA 2019-04-13 23:52:23 22 18 24.9
002F05FA 2019-04-13 23:18:49 22 18 24.9
002F05FA 2019-04-13 22:45:15 22 18 24.8
002F05FA 2019-04-13 22:11:40 22 18 24.7
002F05FA 2019-04-13 21:38:05 22 18 24.6
002F05FA 2019-04-13 21:04:30 22 17 24.7
002F05FA 2019-04-13 20:30:54 22 17 24.7
002F05FA 2019-04-13 19:57:19 22.1 17 24.7
002F05FA 2019-04-13 19:23:43 22.2 18 24.6
002F05FA 2019-04-13 18:50:09 22.2 18 24.7
002F05FA 2019-04-13 18:16:33 22.2 18 24.7
002F05FA 2019-04-13 17:42:58 22.2 18 24.7
002F05FA 2019-04-13 17:09:23 22.2 18 24.7
002F05FA 2019-04-13 16:35:48 22.2 18 24.7
002F05FA 2019-04-13 16:02:15 22.2 18 24.6
002F05FA 2019-04-13 15:28:38 22.2 18 24.7
002F05FA 2019-04-13 14:55:02 22.2 18 24.2
002F05FA 2019-04-13 14:21:28 22.2 18 23.6
002F05FA 2019-04-13 13:47:52 22.3 18 23.6
002F05FA 2019-04-13 13:14:16 22.3 18 23.6
002F05FA 2019-04-13 12:40:41 22.4 18 23.6
002F05FA 2019-04-13 12:07:06 22.4 18 23.8
002F05FA 2019-04-13 11:33:30 22.4 18 23.9
002F05FA 2019-04-13 10:59:54 22.4 18 24
002F05FA 2019-04-13 10:26:19 22.2 18 24
002F05FA 2019-04-13 09:52:44 22.2 18 23.9
002F05FA 2019-04-13 09:19:08 22.2 18 24
002F05FA 2019-04-13 08:45:34 22.2 18 24
002F05FA 2019-04-13 08:11:58 22.2 18 24
002F05FA 2019-04-13 07:38:24 22.2 17 24.2
002F05FA 2019-04-13 07:04:49 22.2 17 24.3
002F05FA 2019-04-13 06:31:14 22.2 17 24.3
002F05FA 2019-04-13 05:57:40 22.2 17 24.4
002F05FA 2019-04-13 05:24:05 22.2 17 24.3
002F05FA 2019-04-13 04:50:29 22.2 17 24.3
002F05FA 2019-04-13 04:16:53 22.2 17 24.7
002F05FA 2019-04-13 03:43:17 22.4 17 25.1
002F05FA 2019-04-13 03:09:40 22.5 18 25.5
002F05FA 2019-04-13 02:36:04 22.5 18 25.9
002F05FA 2019-04-13 02:02:27 22.5 18 26
002F05FA 2019-04-13 01:28:52 22.5 18 26
002F05FA 2019-04-13 00:55:16 22.5 18 26.1
002F05FA 2019-04-13 00:21:40 22.5 18 26.1
002F05FA 2019-04-12 23:48:04 22.5 18 26.2
002F05FA 2019-04-12 23:14:28 22.6 18 26.3
002F05FA 2019-04-12 22:40:53 22.6 18 26.5
002F05FA 2019-04-12 22:07:18 22.7 19 26.5
002F05FA 2019-04-12 21:33:44 22.7 19 26.5
002F05FA 2019-04-12 21:00:08 22.8 19 26.6
002F05FA 2019-04-12 20:26:33 22.8 18 26.7
002F05FA 2019-04-12 19:53:00 22.7 18 26.9
002F05FA 2019-04-12 19:19:25 22.7 18 27.1
002F05FA 2019-04-12 18:45:50 22.9 17 27.3
002F05FA 2019-04-12 18:12:14 22.9 17 27.5
002F05FA 2019-04-12 17:38:39 23.1 17 27.7
002F05FA 2019-04-12 17:05:03 23.1 17 27.8
002F05FA 2019-04-12 16:31:27 23.1 18 28.1
002F05FA 2019-04-12 15:57:50 23.1 18 28.5
002F05FA 2019-04-12 15:24:15 22.9 18 29.2
002F05FA 2019-04-12 14:50:41 22.8 19 30
002F05FA 2019-04-12 14:17:05 22.5 19 30
002F05FA 2019-04-12 13:43:28 22 20 30
002F05FA 2019-04-12 13:09:51 21.2 21 30